EN

Hourly Weather Tonk

Today, 20 April, Tuesday

Time Temperature Precipitation Wind Pressure Humidity
00:00 +31°C° 0 mm 1 mps 730 mmHg 13%
01:00 +31°C° 0 mm 1 mps 730 mmHg 14%
02:00 +30°C° 0 mm 1 mps 729 mmHg 15%
03:00 +30°C° 0 mm 1 mps 729 mmHg 16%
04:00 +30°C° 0 mm 2 mps 730 mmHg 16%
05:00 +30°C° 0 mm 2 mps 730 mmHg 17%
06:00 +31°C° 0 mm 2 mps 730 mmHg 15%
07:00 +34°C° 0 mm 2 mps 730 mmHg 14%
08:00 +36°C° 0 mm 2 mps 731 mmHg 13%
09:00 +37°C° 0 mm 2 mps 731 mmHg 12%
10:00 +39°C° 0 mm 2 mps 730 mmHg 11%
11:00 +40°C° 0 mm 2 mps 730 mmHg 11%
12:00 +42°C° 0 mm 3 mps 730 mmHg 11%
13:00 +42°C° 0 mm 4 mps 729 mmHg 11%
14:00 +44°C° 0 mm 6 mps 728 mmHg 12%
15:00 +41°C° 0 mm 6 mps 728 mmHg 14%
16:00 +40°C° 0 mm 7 mps 728 mmHg 17%
17:00 +38°C° 0 mm 7 mps 727 mmHg 20%
18:00 +35°C° 0.1 mm 7 mps 728 mmHg 23%
19:00 +33°C° 0.1 mm 6 mps 729 mmHg 27%
20:00 +32°C° 0.1 mm 5 mps 730 mmHg 30%
21:00 +30°C° 0 mm 4 mps 730 mmHg 34%
22:00 +28°C° 0 mm 3 mps 730 mmHg 38%
23:00 +27°C° 0 mm 2 mps 731 mmHg 42%

Tomorrow, 21 April, Wednesday

Time Temperature Precipitation Wind Pressure Humidity
00:00 +27°C° 0 mm 2 mps 731 mmHg 43%
01:00 +26°C° 0 mm 2 mps 731 mmHg 44%
02:00 +26°C° 0 mm 1 mps 730 mmHg 45%
03:00 +25°C° 0 mm 1 mps 731 mmHg 46%
04:00 +25°C° 0 mm 1 mps 731 mmHg 48%
05:00 +24°C° 0 mm 1 mps 731 mmHg 49%
06:00 +26°C° 0 mm 1 mps 732 mmHg 44%
07:00 +27°C° 0 mm 2 mps 733 mmHg 39%
08:00 +29°C° 0 mm 2 mps 734 mmHg 34%
09:00 +31°C° 0 mm 1 mps 734 mmHg 30%
10:00 +33°C° 0 mm 1 mps 734 mmHg 25%
11:00 +35°C° 0 mm 1 mps 734 mmHg 20%
12:00 +37°C° 0 mm 2 mps 733 mmHg 17%
13:00 +38°C° 0 mm 2 mps 732 mmHg 14%
14:00 +39°C° 0 mm 3 mps 731 mmHg 12%
15:00 +40°C° 0 mm 4 mps 731 mmHg 11%
16:00 +40°C° 0 mm 4 mps 730 mmHg 11%
17:00 +39°C° 0 mm 5 mps 730 mmHg 11%
18:00 +36°C° 0 mm 5 mps 731 mmHg 14%
19:00 +34°C° 0 mm 4 mps 731 mmHg 18%
20:00 +32°C° 0 mm 4 mps 731 mmHg 22%
21:00 +30°C° 0 mm 3 mps 732 mmHg 24%
22:00 +29°C° 0 mm 3 mps 732 mmHg 25%
23:00 +29°C° 0 mm 2 mps 732 mmHg 27%

Day after tomorrow, 22 April, Thursday

Time Temperature Precipitation Wind Pressure Humidity
00:00 +28°C° 0 mm 2 mps 732 mmHg 28%
01:00 +28°C° 0 mm 2 mps 732 mmHg 29%
02:00 +27°C° 0 mm 3 mps 732 mmHg 30%
03:00 +27°C° 0 mm 2 mps 732 mmHg 31%
04:00 +26°C° 0 mm 2 mps 732 mmHg 32%
05:00 +26°C° 0 mm 2 mps 732 mmHg 33%
06:00 +27°C° 0 mm 2 mps 733 mmHg 30%
07:00 +29°C° 0 mm 2 mps 733 mmHg 27%
08:00 +31°C° 0 mm 2 mps 734 mmHg 24%
09:00 +34°C° 0 mm 2 mps 734 mmHg 21%
10:00 +36°C° 0 mm 2 mps 734 mmHg 18%
11:00 +37°C° 0 mm 1 mps 734 mmHg 15%
12:00 +38°C° 0 mm 2 mps 733 mmHg 13%
13:00 +39°C° 0 mm 2 mps 732 mmHg 11%
14:00 +40°C° 0 mm 2 mps 731 mmHg 9%
15:00 +40°C° 0 mm 2 mps 731 mmHg 9%
16:00 +40°C° 0 mm 3 mps 731 mmHg 8%
17:00 +40°C° 0 mm 3 mps 730 mmHg 7%
18:00 +38°C° 0 mm 2 mps 730 mmHg 9%
19:00 +35°C° 0 mm 1 mps 731 mmHg 10%
20:00 +33°C° 0 mm 1 mps 731 mmHg 11%
21:00 +33°C° 0 mm 1 mps 731 mmHg 11%
22:00 +32°C° 0 mm 2 mps 731 mmHg 12%
23:00 +32°C° 0 mm 2 mps 731 mmHg 12%

23 April, Friday

Time Temperature Precipitation Wind Pressure Humidity
00:00 +31°C° 0 mm 2 mps 731 mmHg 13%
01:00 +30°C° 0 mm 2 mps 730 mmHg 14%
02:00 +29°C° 0 mm 2 mps 730 mmHg 15%
03:00 +29°C° 0 mm 2 mps 730 mmHg 16%
04:00 +29°C° 0 mm 2 mps 731 mmHg 16%
05:00 +28°C° 0 mm 2 mps 731 mmHg 17%
06:00 +30°C° 0 mm 2 mps 731 mmHg 15%
07:00 +32°C° 0 mm 1 mps 732 mmHg 13%
08:00 +34°C° 0 mm 1 mps 733 mmHg 12%
09:00 +36°C° 0 mm 1 mps 733 mmHg 11%
10:00 +37°C° 0 mm 1 mps 732 mmHg 10%
11:00 +40°C° 0 mm 1 mps 732 mmHg 8%
12:00 +41°C° 0 mm 2 mps 732 mmHg 8%
13:00 +43°C° 0 mm 3 mps 731 mmHg 7%
14:00 +43°C° 0 mm 4 mps 730 mmHg 7%
15:00 +43°C° 0 mm 3 mps 730 mmHg 7%
16:00 +42°C° 0 mm 2 mps 730 mmHg 7%
17:00 +42°C° 0 mm 2 mps 729 mmHg 8%
18:00 +40°C° 0 mm 2 mps 729 mmHg 9%
19:00 +37°C° 0 mm 1 mps 730 mmHg 10%
20:00 +35°C° 0 mm 1 mps 730 mmHg 11%
21:00 +35°C° 0 mm 2 mps 730 mmHg 12%
22:00 +35°C° 0 mm 2 mps 731 mmHg 12%
23:00 +34°C° 0 mm 3 mps 731 mmHg 12%

24 April, Saturday

Time Temperature Precipitation Wind Pressure Humidity
00:00 +33°C° 0 mm 3 mps 731 mmHg 13%
01:00 +31°C° 0 mm 3 mps 731 mmHg 15%
02:00 +30°C° 0 mm 3 mps 730 mmHg 16%
03:00 +29°C° 0 mm 3 mps 731 mmHg 20%
04:00 +28°C° 0 mm 3 mps 731 mmHg 25%
05:00 +27°C° 0 mm 3 mps 731 mmHg 30%
06:00 +29°C° 0 mm 3 mps 732 mmHg 27%
07:00 +31°C° 0 mm 3 mps 733 mmHg 25%
08:00 +34°C° 0 mm 4 mps 733 mmHg 22%
09:00 +36°C° 0 mm 3 mps 733 mmHg 19%
10:00 +38°C° 0 mm 3 mps 733 mmHg 16%
11:00 +40°C° 0 mm 2 mps 733 mmHg 13%
12:00 +41°C° 0 mm 2 mps 732 mmHg 12%
13:00 +43°C° 0 mm 3 mps 732 mmHg 10%
14:00 +44°C° 0 mm 3 mps 731 mmHg 9%
15:00 +43°C° 0 mm 3 mps 731 mmHg 9%
16:00 +43°C° 0 mm 3 mps 731 mmHg 9%
17:00 +43°C° 0 mm 3 mps 730 mmHg 9%
18:00 +40°C° 0 mm 3 mps 731 mmHg 9%
19:00 +39°C° 0 mm 3 mps 731 mmHg 9%
20:00 +37°C° 0 mm 3 mps 731 mmHg 9%
21:00 +36°C° 0 mm 3 mps 732 mmHg 10%
22:00 +34°C° 0 mm 2 mps 732 mmHg 11%
23:00 +32°C° 0 mm 1 mps 732 mmHg 12%

25 April, Sunday

Time Temperature Precipitation Wind Pressure Humidity
00:00 +32°C° 0 mm 2 mps 732 mmHg 13%
01:00 +31°C° 0 mm 2 mps 732 mmHg 14%
02:00 +31°C° 0 mm 2 mps 731 mmHg 14%
03:00 +30°C° 0 mm 2 mps 732 mmHg 15%
04:00 +29°C° 0 mm 2 mps 732 mmHg 16%
05:00 +29°C° 0 mm 2 mps 732 mmHg 16%
06:00 +31°C° 0 mm 2 mps 733 mmHg 15%
07:00 +34°C° 0 mm 2 mps 733 mmHg 13%
08:00 +36°C° 0 mm 2 mps 734 mmHg 11%
09:00 +37°C° 0 mm 2 mps 734 mmHg 10%
10:00 +39°C° 0 mm 2 mps 734 mmHg 9%
11:00 +42°C° 0 mm 3 mps 734 mmHg 8%
12:00 +43°C° 0 mm 4 mps 733 mmHg 7%
13:00 +44°C° 0 mm 4 mps 732 mmHg 6%
14:00 +46°C° 0 mm 5 mps 731 mmHg 5%
15:00 +45°C° 0 mm 6 mps 731 mmHg 5%
16:00 +45°C° 0 mm 6 mps 730 mmHg 5%
17:00 +44°C° 0 mm 6 mps 730 mmHg 4%
18:00 +41°C° 0 mm 5 mps 730 mmHg 5%
19:00 +39°C° 0 mm 5 mps 731 mmHg 6%
20:00 +36°C° 0 mm 4 mps 731 mmHg 7%
21:00 +36°C° 0 mm 4 mps 731 mmHg 8%
22:00 +35°C° 0 mm 4 mps 731 mmHg 9%
23:00 +34°C° 0 mm 4 mps 731 mmHg 9%
Show more

We Need Your Consent

Meteoprog and our Service Providers may store and access personal data such as cookies, device identifiers or other similar technologies on your device and process such data to personalise content and ads, as well as provide social media features and to analyse the traffic.

  • Store and/or access information on your device

    Cookies, device identifiers or other information can be stored or accessed on your device for the purposes indicated above.

  • Personalised ads and content, ad and content measurement, audience insights, and products development

    Ads and content can be personalised based on a profile. More data can be added to better personalise ads and content. Ad and content performance can be measured. Insights about the audience who saw the ads and content can be derived. Such data can be used to develop or improve user’s experience, systems and software.

By clicking ‘I Agree’ you will allow the use of indicated cookies, device identifiers, web beacons or other similar technologies. Your settings can be changed in the browser on your device.

For certain purposes, legitimate interests may be relied on, rather than consent. You can read more about this in our Privacy and Cookie Policy.